nws-alerts: Checking more than four warning/county codes can delay the loading of your pages. You should use a cron job to get the data.
EllijayWeather Station Historical Data
Daily Summary for March 27, 2019 Units:  English    Metric   Both
Daily Weekly Monthly Yearly Custom
  High: Low: Average:
Temperature: 61.2 °F 41.4 °F 51.5 °F
Dew Point: 44.6 °F 28.6 °F 36 °F
Humidity: 83% 36% 58%
Wind Speed: 4.9mph 0.0mph 0.4mph
Wind Gust: 9.0mph - -
Wind- - SE
Pressure: 30.44 in 30.28 in -
Precipitation: 0.00 in    
Historical Graphs
 
 
Tabular Data for March 27, 2019
Time Temperature Dew Point Pressure Wind Wind Speed Wind Gust Humidity Rainfall Rate (Hourly) solar
00:04 49.5 °F 43.9 °F 30.28 in Calm     81% 0.00 in meteobridge W/m2
00:09 49.5 °F 44.2 °F 30.28 in Calm     82% 0.00 in meteobridge W/m2
00:14 49.5 °F 44.2 °F 30.28 in Calm     82% 0.00 in meteobridge W/m2
00:19 49.3 °F 44.1 °F 30.28 in Calm     82% 0.00 in meteobridge W/m2
00:24 49.3 °F 44.1 °F 30.28 in Calm     82% 0.00 in meteobridge W/m2
00:29 49.3 °F 44.4 °F 30.28 in Calm     83% 0.00 in meteobridge W/m2
00:34 49.3 °F 44.4 °F 30.28 in Calm     83% 0.00 in meteobridge W/m2
00:39 49.3 °F 44.4 °F 30.28 in Calm     83% 0.00 in meteobridge W/m2
00:44 49.3 °F 44.4 °F 30.28 in Calm     83% 0.00 in meteobridge W/m2
00:49 49.5 °F 44.6 °F 30.28 in Calm     83% 0.00 in meteobridge W/m2
00:54 49.5 °F 43.9 °F 30.28 in SSE 0.9 mph 1.0 mph 81% 0.00 in meteobridge W/m2
00:59 49.6 °F 44.1 °F 30.28 in Calm     81% 0.00 in meteobridge W/m2
01:04 49.8 °F 44.2 °F 30.28 in Calm     81% 0.00 in meteobridge W/m2
01:09 49.8 °F 44.2 °F 30.28 in Calm     81% 0.00 in meteobridge W/m2
01:14 49.8 °F 43.5 °F 30.28 in Calm   5.0 mph 79% 0.00 in meteobridge W/m2
01:19 49.8 °F 43.5 °F 30.28 in Calm   1.0 mph 79% 0.00 in meteobridge W/m2
01:24 49.8 °F 43.2 °F 30.28 in Calm   4.0 mph 78% 0.00 in meteobridge W/m2
01:29 49.8 °F 43.0 °F 30.28 in SE 2.0 mph 4.0 mph 77% 0.00 in meteobridge W/m2
01:34 50.0 °F 43.2 °F 30.28 in Calm     77% 0.00 in meteobridge W/m2
01:39 49.8 °F 42.6 °F 30.28 in Calm   6.0 mph 76% 0.00 in meteobridge W/m2
01:44 50.0 °F 42.8 °F 30.28 in Calm     76% 0.00 in meteobridge W/m2
01:49 49.8 °F 42.3 °F 30.28 in Calm   4.0 mph 75% 0.00 in meteobridge W/m2
01:54 49.8 °F 42.3 °F 30.28 in SE 0.9 mph 5.0 mph 75% 0.00 in meteobridge W/m2
01:59 49.8 °F 41.9 °F 30.28 in Calm   4.0 mph 74% 0.00 in meteobridge W/m2
02:04 49.8 °F 42.3 °F 30.29 in Calm   6.0 mph 75% 0.00 in meteobridge W/m2
02:09 49.6 °F 42.1 °F 30.28 in SE 0.9 mph 1.0 mph 75% 0.00 in meteobridge W/m2
02:14 49.6 °F 42.1 °F 30.28 in Calm   5.0 mph 75% 0.00 in meteobridge W/m2
02:19 49.6 °F 42.1 °F 30.29 in Calm   5.0 mph 75% 0.00 in meteobridge W/m2
02:24 49.6 °F 42.4 °F 30.29 in ESE 2.0 mph 2.0 mph 76% 0.00 in meteobridge W/m2
02:29 49.5 °F 42.3 °F 30.29 in Calm   2.0 mph 76% 0.00 in meteobridge W/m2
02:34 49.5 °F 42.3 °F 30.29 in Calm   5.0 mph 76% 0.00 in meteobridge W/m2
02:39 49.5 °F 42.3 °F 30.29 in Calm   1.0 mph 76% 0.00 in meteobridge W/m2
02:44 49.3 °F 42.1 °F 30.29 in Calm     76% 0.00 in meteobridge W/m2
02:49 49.3 °F 42.1 °F 30.29 in SE 0.9 mph 5.0 mph 76% 0.00 in meteobridge W/m2
02:54 49.3 °F 41.7 °F 30.28 in Calm   2.0 mph 75% 0.00 in meteobridge W/m2
02:59 49.3 °F 41.4 °F 30.28 in SE 0.9 mph 6.0 mph 74% 0.00 in meteobridge W/m2
03:04 49.1 °F 41.5 °F 30.29 in Calm   2.0 mph 75% 0.00 in meteobridge W/m2
03:09 48.9 °F 41.0 °F 30.29 in Calm   2.0 mph 74% 0.00 in meteobridge W/m2
03:14 48.9 °F 41.0 °F 30.29 in Calm     74% 0.00 in meteobridge W/m2
03:19 48.7 °F 40.1 °F 30.29 in Calm   7.0 mph 72% 0.00 in meteobridge W/m2
03:24 48.7 °F 40.1 °F 30.29 in Calm   1.0 mph 72% 0.00 in meteobridge W/m2
03:29 48.7 °F 40.1 °F 30.29 in Calm     72% 0.00 in meteobridge W/m2
03:34 48.7 °F 40.1 °F 30.29 in Calm   4.0 mph 72% 0.00 in meteobridge W/m2
03:39 48.6 °F 40.3 °F 30.29 in Calm     73% 0.00 in meteobridge W/m2
03:44 48.6 °F 39.9 °F 30.29 in Calm   5.0 mph 72% 0.00 in meteobridge W/m2
03:49 48.4 °F 40.1 °F 30.29 in Calm     73% 0.00 in meteobridge W/m2
03:54 48.2 °F 39.9 °F 30.29 in Calm     73% 0.00 in meteobridge W/m2
03:59 48.0 °F 40.1 °F 30.29 in Calm     74% 0.00 in meteobridge W/m2
04:04 47.8 °F 39.9 °F 30.29 in Calm   2.0 mph 74% 0.00 in meteobridge W/m2
04:09 47.8 °F 39.9 °F 30.29 in Calm     74% 0.00 in meteobridge W/m2
04:14 47.8 °F 40.3 °F 30.29 in Calm     75% 0.00 in meteobridge W/m2
04:19 47.7 °F 40.1 °F 30.29 in Calm     75% 0.00 in meteobridge W/m2
04:24 47.7 °F 40.5 °F 30.29 in Calm     76% 0.00 in meteobridge W/m2
04:29 47.7 °F 40.5 °F 30.29 in Calm     76% 0.00 in meteobridge W/m2
04:34 47.7 °F 40.5 °F 30.29 in Calm     76% 0.00 in meteobridge W/m2
04:39 47.7 °F 40.5 °F 30.30 in Calm   1.0 mph 76% 0.00 in meteobridge W/m2
04:44 47.5 °F 39.9 °F 30.30 in Calm     75% 0.00 in meteobridge W/m2
04:49 47.7 °F 40.5 °F 30.30 in Calm     76% 0.00 in meteobridge W/m2
04:54 47.7 °F 40.5 °F 30.30 in Calm     76% 0.00 in meteobridge W/m2
04:59 47.5 °F 40.3 °F 30.30 in Calm     76% 0.00 in meteobridge W/m2
05:04 47.5 °F 39.9 °F 30.30 in ESE 2.0 mph 2.0 mph 75% 0.00 in meteobridge W/m2
05:09 47.5 °F 39.9 °F 30.30 in Calm   2.0 mph 75% 0.00 in meteobridge W/m2
05:14 47.3 °F 39.4 °F 30.30 in Calm     74% 0.00 in meteobridge W/m2
05:19 47.1 °F 39.2 °F 30.30 in SSE 2.0 mph 2.0 mph 74% 0.00 in meteobridge W/m2
05:24 47.1 °F 39.6 °F 30.30 in Calm     75% 0.00 in meteobridge W/m2
05:29 47.1 °F 39.6 °F 30.30 in Calm     75% 0.00 in meteobridge W/m2
05:34 47.1 °F 38.8 °F 30.30 in Calm   5.0 mph 73% 0.00 in meteobridge W/m2
05:39 47.1 °F 38.8 °F 30.30 in SE 0.9 mph 5.0 mph 73% 0.00 in meteobridge W/m2
05:44 47.1 °F 38.8 °F 30.31 in SE 4.9 mph 6.0 mph 73% 0.00 in meteobridge W/m2
05:49 46.9 °F 38.7 °F 30.31 in Calm     73% 0.00 in meteobridge W/m2
05:54 46.9 °F 38.7 °F 30.31 in Calm   1.0 mph 73% 0.00 in meteobridge W/m2
05:59 46.9 °F 38.7 °F 30.31 in Calm   4.0 mph 73% 0.00 in meteobridge W/m2
06:04 46.9 °F 38.7 °F 30.32 in Calm     73% 0.00 in meteobridge W/m2
06:09 46.8 °F 38.3 °F 30.32 in ESE 2.0 mph 2.0 mph 72% 0.00 in meteobridge W/m2
06:14 46.9 °F 38.3 °F 30.32 in Calm   4.0 mph 72% 0.00 in meteobridge W/m2
06:19 46.9 °F 38.3 °F 30.33 in Calm     72% 0.00 in meteobridge W/m2
06:24 46.9 °F 38.1 °F 30.33 in Calm   2.0 mph 71% 0.00 in meteobridge W/m2
06:29 46.9 °F 38.1 °F 30.33 in Calm     71% 0.00 in meteobridge W/m2
06:34 46.9 °F 38.1 °F 30.33 in Calm     71% 0.00 in meteobridge W/m2
06:39 46.8 °F 37.6 °F 30.34 in Calm   2.0 mph 70% 0.00 in meteobridge W/m2
06:44 46.8 °F 37.6 °F 30.34 in Calm     70% 0.00 in meteobridge W/m2
06:49 46.8 °F 37.6 °F 30.34 in Calm     70% 0.00 in meteobridge W/m2
06:54 46.6 °F 37.0 °F 30.35 in Calm     69% 0.00 in meteobridge W/m2
06:59 46.6 °F 37.0 °F 30.35 in Calm     69% 0.00 in meteobridge W/m2
07:04 46.6 °F 36.5 °F 30.35 in Calm   1.0 mph 68% 0.00 in meteobridge W/m2
07:09 46.2 °F 36.3 °F 30.35 in Calm   4.0 mph 68% 0.00 in meteobridge W/m2
07:14 46.0 °F 36.5 °F 30.35 in Calm     69% 0.00 in meteobridge W/m2
07:19 46.0 °F 36.1 °F 30.36 in SE 0.9 mph 4.0 mph 68% 0.00 in meteobridge W/m2
07:24 45.9 °F 36.0 °F 30.36 in Calm   1.0 mph 68% 0.00 in meteobridge W/m2
07:29 45.9 °F 36.3 °F 30.37 in Calm   1.0 mph 69% 0.00 in meteobridge W/m2
07:34 45.9 °F 36.3 °F 30.37 in Calm   4.0 mph 69% 0.00 in meteobridge W/m2
07:39 45.9 °F 36.3 °F 30.37 in East 4.9 mph 5.0 mph 69% 0.00 in meteobridge W/m2
07:44 45.9 °F 36.0 °F 30.37 in ESE 2.0 mph 2.0 mph 68% 0.00 in meteobridge W/m2
07:49 45.9 °F 36.3 °F 30.38 in Calm     69% 0.00 in meteobridge W/m2
07:54 45.9 °F 36.0 °F 30.38 in Calm     68% 0.00 in meteobridge W/m2
07:59 45.7 °F 35.4 °F 30.38 in ESE 2.0 mph 4.0 mph 67% 0.00 in meteobridge W/m2
08:04 45.7 °F 34.5 °F 30.38 in SE 4.0 mph 4.0 mph 65% 0.00 in meteobridge W/m2
08:09 45.5 °F 34.3 °F 30.38 in Calm   4.0 mph 65% 0.00 in meteobridge W/m2
08:14 45.3 °F 33.8 °F 30.38 in ESE 4.0 mph 4.0 mph 64% 0.00 in meteobridge W/m2
08:19 45.3 °F 33.4 °F 30.39 in Calm   7.0 mph 63% 0.00 in meteobridge W/m2
08:24 45.7 °F 33.8 °F 30.39 in Calm   5.0 mph 63% 0.00 in meteobridge W/m2
08:29 45.9 °F 34.0 °F 30.40 in Calm   1.0 mph 63% 0.00 in meteobridge W/m2
08:34 45.9 °F 33.6 °F 30.40 in SE 2.0 mph 5.0 mph 62% 0.00 in meteobridge W/m2
08:39 46.0 °F 34.2 °F 30.41 in Calm   5.0 mph 63% 0.00 in meteobridge W/m2
08:44 46.4 °F 34.2 °F 30.41 in Calm   6.0 mph 62% 0.00 in meteobridge W/m2
08:49 46.6 °F 34.7 °F 30.41 in Calm     63% 0.00 in meteobridge W/m2
08:54 46.6 °F 33.8 °F 30.41 in Calm   4.0 mph 61% 0.00 in meteobridge W/m2
08:59 46.6 °F 34.3 °F 30.41 in Calm   1.0 mph 62% 0.00 in meteobridge W/m2
09:04 46.8 °F 34.5 °F 30.41 in Calm   2.0 mph 62% 0.00 in meteobridge W/m2
09:09 46.8 °F 33.6 °F 30.42 in SE 2.0 mph 5.0 mph 60% 0.00 in meteobridge W/m2
09:14 46.8 °F 33.6 °F 30.41 in Calm   4.0 mph 60% 0.00 in meteobridge W/m2
09:19 46.9 °F 33.4 °F 30.41 in SE 4.9 mph 5.0 mph 59% 0.00 in meteobridge W/m2
09:24 46.8 °F 32.7 °F 30.41 in East 4.0 mph 5.0 mph 58% 0.00 in meteobridge W/m2
09:29 46.8 °F 32.4 °F 30.41 in Calm   1.0 mph 57% 0.00 in meteobridge W/m2
09:34 47.1 °F 32.2 °F 30.42 in ESE 2.0 mph 2.0 mph 56% 0.00 in meteobridge W/m2
09:39 47.1 °F 32.2 °F 30.42 in SE 0.9 mph 2.0 mph 56% 0.00 in meteobridge W/m2
09:44 47.1 °F 30.9 °F 30.41 in Calm   5.0 mph 53% 0.00 in meteobridge W/m2
09:49 47.1 °F 29.5 °F 30.41 in Calm   7.0 mph 50% 0.00 in meteobridge W/m2
09:54 47.1 °F 30.4 °F 30.42 in Calm   4.0 mph 52% 0.00 in meteobridge W/m2
09:59 47.5 °F 30.7 °F 30.42 in Calm   5.0 mph 52% 0.00 in meteobridge W/m2
10:04 47.8 °F 31.1 °F 30.42 in Calm   4.0 mph 52% 0.00 in meteobridge W/m2
10:09 48.0 °F 29.3 °F 30.42 in ESE 4.0 mph 7.0 mph 48% 0.00 in meteobridge W/m2
10:14 47.7 °F 30.0 °F 30.42 in Calm   5.0 mph 50% 0.00 in meteobridge W/m2
10:19 48.0 °F 30.2 °F 30.42 in SE 4.9 mph 6.0 mph 50% 0.00 in meteobridge W/m2
10:24 48.4 °F 29.7 °F 30.42 in SSE 4.0 mph 6.0 mph 48% 0.00 in meteobridge W/m2
10:29 48.7 °F 31.5 °F 30.42 in ESE 4.0 mph 4.0 mph 51% 0.00 in meteobridge W/m2
10:34 48.7 °F 30.9 °F 30.42 in Calm     50% 0.00 in meteobridge W/m2
10:39 48.7 °F 30.4 °F 30.42 in East 4.0 mph 9.0 mph 49% 0.00 in meteobridge W/m2
10:44 49.1 °F 29.7 °F 30.42 in SE 0.9 mph 7.0 mph 47% 0.00 in meteobridge W/m2
10:49 49.6 °F 29.1 °F 30.42 in SE 4.0 mph 9.0 mph 45% 0.00 in meteobridge W/m2
10:54 49.6 °F 28.6 °F 30.42 in ESE 2.0 mph 9.0 mph 44% 0.00 in meteobridge W/m2
10:59 50.0 °F 29.5 °F 30.43 in Calm   2.0 mph 45% 0.00 in meteobridge W/m2
11:04 50.7 °F 29.1 °F 30.43 in Calm   4.0 mph 43% 0.00 in meteobridge W/m2
11:09 50.7 °F 29.7 °F 30.42 in Calm   5.0 mph 44% 0.00 in meteobridge W/m2
11:14 51.3 °F 30.0 °F 30.43 in Calm   5.0 mph 44% 0.00 in meteobridge W/m2
11:19 51.8 °F 31.1 °F 30.43 in Calm   1.0 mph 45% 0.00 in meteobridge W/m2
11:24 52.3 °F 29.8 °F 30.43 in Calm   3.0 mph 42% 0.00 in meteobridge W/m2
11:29 52.5 °F 30.7 °F 30.43 in SE 2.0 mph 6.0 mph 43% 0.00 in meteobridge W/m2
11:34 52.7 °F 31.5 °F 30.43 in Calm     44% 0.00 in meteobridge W/m2
11:39 52.9 °F 30.4 °F 30.44 in Calm     42% 0.00 in meteobridge W/m2
11:44 53.1 °F 30.0 °F 30.44 in Calm   3.0 mph 41% 0.00 in meteobridge W/m2
11:49 53.1 °F 31.1 °F 30.44 in Calm   4.0 mph 43% 0.00 in meteobridge W/m2
11:54 53.1 °F 31.1 °F 30.44 in Calm   1.0 mph 43% 0.00 in meteobridge W/m2
11:59 53.2 °F 31.3 °F 30.43 in Calm   4.0 mph 43% 0.00 in meteobridge W/m2
12:04 53.6 °F 31.6 °F 30.43 in Calm   2.0 mph 43% 0.00 in meteobridge W/m2
12:09 54.0 °F 31.5 °F 30.43 in Calm   7.0 mph 42% 0.00 in meteobridge W/m2
12:14 54.1 °F 32.2 °F 30.43 in ESE 0.9 mph 4.0 mph 43% 0.00 in meteobridge W/m2
12:19 54.1 °F 30.9 °F 30.43 in ESE 0.9 mph 5.0 mph 41% 0.00 in meteobridge W/m2
12:24 54.3 °F 31.6 °F 30.42 in Calm   4.0 mph 42% 0.00 in meteobridge W/m2
12:29 54.1 °F 30.9 °F 30.42 in Calm   2.0 mph 41% 0.00 in meteobridge W/m2
12:34 54.5 °F 31.8 °F 30.42 in ESE 0.9 mph 2.0 mph 42% 0.00 in meteobridge W/m2
12:39 54.7 °F 31.5 °F 30.42 in Calm     41% 0.00 in meteobridge W/m2
12:44 55.0 °F 31.8 °F 30.42 in ESE 2.0 mph 4.0 mph 41% 0.00 in meteobridge W/m2
12:49 55.4 °F 32.0 °F 30.42 in Calm     41% 0.00 in meteobridge W/m2
12:54 55.8 °F 31.1 °F 30.42 in Calm   1.0 mph 39% 0.00 in meteobridge W/m2
12:59 55.8 °F 31.8 °F 30.41 in Calm     40% 0.00 in meteobridge W/m2
13:04 56.1 °F 32.7 °F 30.41 in Calm   2.0 mph 41% 0.00 in meteobridge W/m2
13:09 56.3 °F 32.4 °F 30.41 in Calm   1.0 mph 40% 0.00 in meteobridge W/m2
13:14 56.7 °F 33.8 °F 30.41 in Calm   1.0 mph 42% 0.00 in meteobridge W/m2
13:19 56.7 °F 33.3 °F 30.40 in Calm     41% 0.00 in meteobridge W/m2
13:24 57.4 °F 33.3 °F 30.40 in Calm     40% 0.00 in meteobridge W/m2
13:29 57.4 °F 32.5 °F 30.40 in SSE 4.0 mph 5.0 mph 39% 0.00 in meteobridge W/m2
13:34 57.4 °F 33.3 °F 30.40 in NW 2.9 mph 3.0 mph 40% 0.00 in meteobridge W/m2
13:39 57.4 °F 32.5 °F 30.40 in Calm   4.0 mph 39% 0.00 in meteobridge W/m2
13:44 57.4 °F 32.5 °F 30.40 in WNW 0.9 mph 4.0 mph 39% 0.00 in meteobridge W/m2
13:49 57.6 °F 33.4 °F 30.40 in Calm     40% 0.00 in meteobridge W/m2
13:54 58.1 °F 33.3 °F 30.39 in Calm   2.0 mph 39% 0.00 in meteobridge W/m2
13:59 58.3 °F 35.2 °F 30.39 in SE 4.0 mph 6.0 mph 42% 0.00 in meteobridge W/m2
14:04 58.3 °F 34.0 °F 30.38 in Calm     40% 0.00 in meteobridge W/m2
14:09 58.5 °F 33.6 °F 30.38 in Calm     39% 0.00 in meteobridge W/m2
14:14 58.6 °F 33.1 °F 30.38 in NE 0.9 mph 2.0 mph 38% 0.00 in meteobridge W/m2
14:19 59.0 °F 34.2 °F 30.37 in ENE 0.9 mph 1.0 mph 39% 0.00 in meteobridge W/m2
14:24 59.4 °F 35.1 °F 30.37 in Calm     40% 0.00 in meteobridge W/m2
14:29 59.7 °F 34.7 °F 30.37 in ESE 0.9 mph 4.0 mph 39% 0.00 in meteobridge W/m2
14:34 59.7 °F 34.0 °F 30.36 in Calm   1.0 mph 38% 0.00 in meteobridge W/m2
14:39 59.7 °F 34.7 °F 30.36 in NW 0.9 mph 1.0 mph 39% 0.00 in meteobridge W/m2
14:44 59.7 °F 33.4 °F 30.36 in ESE 2.0 mph 4.0 mph 37% 0.00 in meteobridge W/m2
14:49 59.5 °F 34.5 °F 30.35 in South 2.0 mph 3.0 mph 39% 0.00 in meteobridge W/m2
14:54 59.7 °F 34.0 °F 30.35 in Calm   2.0 mph 38% 0.00 in meteobridge W/m2
14:59 60.1 °F 34.3 °F 30.35 in ESE 4.0 mph 4.0 mph 38% 0.00 in meteobridge W/m2
15:04 60.3 °F 33.8 °F 30.34 in NW 0.9 mph 1.0 mph 37% 0.00 in meteobridge W/m2
15:09 60.4 °F 35.4 °F 30.34 in Calm   1.0 mph 39% 0.00 in meteobridge W/m2
15:14 60.8 °F 35.1 °F 30.34 in Calm   1.0 mph 38% 0.00 in meteobridge W/m2
15:19 60.8 °F 35.1 °F 30.34 in Calm   2.0 mph 38% 0.00 in meteobridge W/m2
15:24 60.8 °F 35.6 °F 30.34 in Calm     39% 0.00 in meteobridge W/m2
15:29 60.6 °F 34.9 °F 30.34 in Calm   1.0 mph 38% 0.00 in meteobridge W/m2
15:34 61.0 °F 35.2 °F 30.34 in NE 2.0 mph 3.0 mph 38% 0.00 in meteobridge W/m2
15:39 61.0 °F 33.8 °F 30.34 in Calm     36% 0.00 in meteobridge W/m2
15:44 60.6 °F 34.2 °F 30.33 in Calm   4.0 mph 37% 0.00 in meteobridge W/m2
15:49 61.0 °F 35.8 °F 30.33 in Calm   2.0 mph 39% 0.00 in meteobridge W/m2
15:54 61.2 °F 34.7 °F 30.33 in Calm   1.0 mph 37% 0.00 in meteobridge W/m2
15:59 61.2 °F 34.7 °F 30.33 in East 2.0 mph 4.0 mph 37% 0.00 in meteobridge W/m2
16:04 61.0 °F 34.5 °F 30.33 in Calm   1.0 mph 37% 0.00 in meteobridge W/m2
16:09 61.0 °F 33.8 °F 30.33 in Calm     36% 0.00 in meteobridge W/m2
16:14 61.0 °F 34.5 °F 30.33 in Calm   1.0 mph 37% 0.00 in meteobridge W/m2
16:19 61.2 °F 34.0 °F 30.33 in ESE 0.9 mph 1.0 mph 36% 0.00 in meteobridge W/m2
16:24 61.0 °F 34.5 °F 30.33 in Calm   1.0 mph 37% 0.00 in meteobridge W/m2
16:29 61.0 °F 34.5 °F 30.33 in East 0.9 mph 1.0 mph 37% 0.00 in meteobridge W/m2
16:34 61.0 °F 35.2 °F 30.33 in ESE 0.9 mph 4.0 mph 38% 0.00 in meteobridge W/m2
16:39 60.8 °F 34.3 °F 30.33 in Calm   1.0 mph 37% 0.00 in meteobridge W/m2
16:44 61.0 °F 35.2 °F 30.33 in Calm     38% 0.00 in meteobridge W/m2
16:49 61.0 °F 34.5 °F 30.33 in Calm   4.0 mph 37% 0.00 in meteobridge W/m2
16:54 61.0 °F 34.5 °F 30.33 in Calm     37% 0.00 in meteobridge W/m2
16:59 60.8 °F 35.1 °F 30.32 in Calm   1.0 mph 38% 0.00 in meteobridge W/m2
17:04 61.0 °F 34.5 °F 30.33 in Calm     37% 0.00 in meteobridge W/m2
17:09 60.8 °F 34.3 °F 30.32 in ESE 0.9 mph 1.0 mph 37% 0.00 in meteobridge W/m2
17:14 61.0 °F 35.2 °F 30.32 in Calm   1.0 mph 38% 0.00 in meteobridge W/m2
17:19 61.0 °F 35.2 °F 30.32 in Calm     38% 0.00 in meteobridge W/m2
17:24 61.2 °F 35.4 °F 30.32 in Calm     38% 0.00 in meteobridge W/m2
17:29 61.0 °F 34.5 °F 30.32 in ESE 0.9 mph 4.0 mph 37% 0.00 in meteobridge W/m2
17:34 60.8 °F 34.3 °F 30.33 in Calm     37% 0.00 in meteobridge W/m2
17:39 60.6 °F 34.2 °F 30.33 in Calm     37% 0.00 in meteobridge W/m2
17:44 60.6 °F 35.6 °F 30.32 in Calm     39% 0.00 in meteobridge W/m2
17:49 60.6 °F 34.2 °F 30.32 in Calm     37% 0.00 in meteobridge W/m2
17:54 60.4 °F 34.0 °F 30.32 in Calm   1.0 mph 37% 0.00 in meteobridge W/m2
17:59 60.4 °F 34.7 °F 30.32 in Calm   1.0 mph 38% 0.00 in meteobridge W/m2
18:04 60.4 °F 34.0 °F 30.32 in Calm     37% 0.00 in meteobridge W/m2
18:09 60.4 °F 35.4 °F 30.33 in Calm     39% 0.00 in meteobridge W/m2
18:14 60.4 °F 34.7 °F 30.33 in Calm     38% 0.00 in meteobridge W/m2
18:19 60.3 °F 35.2 °F 30.33 in Calm     39% 0.00 in meteobridge W/m2
18:24 60.1 °F 34.3 °F 30.33 in Calm     38% 0.00 in meteobridge W/m2
18:29 59.7 °F 34.7 °F 30.33 in Calm     39% 0.00 in meteobridge W/m2
18:34 59.5 °F 35.2 °F 30.33 in Calm     40% 0.00 in meteobridge W/m2
18:39 59.5 °F 35.2 °F 30.33 in Calm   1.0 mph 40% 0.00 in meteobridge W/m2
18:44 59.2 °F 35.4 °F 30.33 in Calm     41% 0.00 in meteobridge W/m2
18:49 59.0 °F 36.0 °F 30.33 in Calm   1.0 mph 42% 0.00 in meteobridge W/m2
18:54 58.8 °F 34.5 °F 30.33 in Calm     40% 0.00 in meteobridge W/m2
18:59 58.6 °F 34.3 °F 30.33 in Calm     40% 0.00 in meteobridge W/m2
19:04 58.6 °F 34.3 °F 30.34 in Calm     40% 0.00 in meteobridge W/m2
19:09 58.5 °F 34.9 °F 30.34 in Calm     41% 0.00 in meteobridge W/m2
19:14 58.3 °F 35.2 °F 30.34 in Calm   1.0 mph 42% 0.00 in meteobridge W/m2
19:19 57.9 °F 34.9 °F 30.34 in Calm     42% 0.00 in meteobridge W/m2
19:24 57.7 °F 34.2 °F 30.34 in Calm     41% 0.00 in meteobridge W/m2
19:29 57.4 °F 34.5 °F 30.34 in Calm     42% 0.00 in meteobridge W/m2
19:34 57.2 °F 34.9 °F 30.34 in Calm     43% 0.00 in meteobridge W/m2
19:39 56.8 °F 35.2 °F 30.34 in Calm     44% 0.00 in meteobridge W/m2
19:44 56.5 °F 35.4 °F 30.34 in Calm     45% 0.00 in meteobridge W/m2
19:49 56.1 °F 35.1 °F 30.34 in Calm     45% 0.00 in meteobridge W/m2
19:54 55.8 °F 35.2 °F 30.34 in Calm     46% 0.00 in meteobridge W/m2
19:59 55.4 °F 35.4 °F 30.34 in Calm     47% 0.00 in meteobridge W/m2
20:04 55.0 °F 35.2 °F 30.35 in Calm     47% 0.00 in meteobridge W/m2
20:09 54.7 °F 35.4 °F 30.35 in Calm     48% 0.00 in meteobridge W/m2
20:14 54.3 °F 35.6 °F 30.35 in Calm     49% 0.00 in meteobridge W/m2
20:19 54.0 °F 35.8 °F 30.35 in Calm     50% 0.00 in meteobridge W/m2
20:24 53.2 °F 35.6 °F 30.35 in Calm     51% 0.00 in meteobridge W/m2
20:29 52.9 °F 35.8 °F 30.35 in Calm     52% 0.00 in meteobridge W/m2
20:34 52.5 °F 36.3 °F 30.35 in Calm     54% 0.00 in meteobridge W/m2
20:39 52.0 °F 36.3 °F 30.35 in Calm     55% 0.00 in meteobridge W/m2
20:44 51.3 °F 35.6 °F 30.35 in Calm     55% 0.00 in meteobridge W/m2
20:49 50.7 °F 36.0 °F 30.35 in Calm     57% 0.00 in meteobridge W/m2
20:54 50.2 °F 36.3 °F 30.35 in Calm     59% 0.00 in meteobridge W/m2
20:59 49.8 °F 36.1 °F 30.36 in Calm     59% 0.00 in meteobridge W/m2
21:04 49.5 °F 36.1 °F 30.36 in Calm     60% 0.00 in meteobridge W/m2
21:09 49.1 °F 36.3 °F 30.36 in Calm     61% 0.00 in meteobridge W/m2
21:14 48.7 °F 36.3 °F 30.36 in Calm     62% 0.00 in meteobridge W/m2
21:19 48.4 °F 36.0 °F 30.36 in Calm     62% 0.00 in meteobridge W/m2
21:24 48.0 °F 36.0 °F 30.36 in Calm     63% 0.00 in meteobridge W/m2
21:29 47.7 °F 36.5 °F 30.36 in Calm     65% 0.00 in meteobridge W/m2
21:34 47.1 °F 35.6 °F 30.37 in Calm     64% 0.00 in meteobridge W/m2
21:39 46.9 °F 35.4 °F 30.37 in Calm     64% 0.00 in meteobridge W/m2
21:44 46.8 °F 35.2 °F 30.37 in Calm     64% 0.00 in meteobridge W/m2
21:49 46.4 °F 35.6 °F 30.37 in Calm     66% 0.00 in meteobridge W/m2
21:54 46.0 °F 35.2 °F 30.37 in Calm     66% 0.00 in meteobridge W/m2
21:59 45.9 °F 35.6 °F 30.37 in Calm     67% 0.00 in meteobridge W/m2
22:04 45.7 °F 35.4 °F 30.38 in Calm     67% 0.00 in meteobridge W/m2
22:09 45.3 °F 35.8 °F 30.38 in Calm     69% 0.00 in meteobridge W/m2
22:14 45.1 °F 35.6 °F 30.38 in Calm     69% 0.00 in meteobridge W/m2
22:19 45.0 °F 35.8 °F 30.38 in Calm     70% 0.00 in meteobridge W/m2
22:24 44.4 °F 35.2 °F 30.37 in Calm     70% 0.00 in meteobridge W/m2
22:29 44.2 °F 35.4 °F 30.38 in Calm     71% 0.00 in meteobridge W/m2
22:34 44.1 °F 35.6 °F 30.38 in Calm     72% 0.00 in meteobridge W/m2
22:39 43.9 °F 35.8 °F 30.38 in Calm     73% 0.00 in meteobridge W/m2
22:44 43.7 °F 35.6 °F 30.38 in Calm     73% 0.00 in meteobridge W/m2
22:49 43.5 °F 35.1 °F 30.38 in Calm     72% 0.00 in meteobridge W/m2
22:54 43.3 °F 35.2 °F 30.38 in Calm     73% 0.00 in meteobridge W/m2
22:59 43.3 °F 35.2 °F 30.38 in Calm     73% 0.00 in meteobridge W/m2
23:04 43.2 °F 34.7 °F 30.38 in Calm     72% 0.00 in meteobridge W/m2
23:09 43.0 °F 34.9 °F 30.38 in Calm     73% 0.00 in meteobridge W/m2
23:14 42.6 °F 34.5 °F 30.38 in Calm     73% 0.00 in meteobridge W/m2
23:19 42.4 °F 34.3 °F 30.38 in Calm     73% 0.00 in meteobridge W/m2
23:24 42.4 °F 34.3 °F 30.39 in Calm     73% 0.00 in meteobridge W/m2
23:29 42.3 °F 34.5 °F 30.39 in Calm     74% 0.00 in meteobridge W/m2
23:34 42.3 °F 34.2 °F 30.39 in Calm     73% 0.00 in meteobridge W/m2
23:39 42.1 °F 34.0 °F 30.39 in Calm     73% 0.00 in meteobridge W/m2
23:44 41.9 °F 33.8 °F 30.40 in Calm     73% 0.00 in meteobridge W/m2
23:49 41.5 °F 33.8 °F 30.40 in Calm     74% 0.00 in meteobridge W/m2
23:54 41.4 °F 34.3 °F 30.40 in Calm     76% 0.00 in meteobridge W/m2
23:59 41.4 °F 34.3 °F 30.40 in Calm     76% 0.00 in meteobridge W/m2
EllijayWeather
Compliments of Weather Underground - 2.5 mb